Location: Carbonara
(45.0333°N, 11.2167°E)
Time: 15:43:26
(UTC+00:00)

Daily predictions for brighter satellites

Satellite Brightness Start Highest point End
(mag) Time Altitude Azimuth Time Altitude Azimuth Time Altitude Azimuth
Cosmos 2221 3.9 15:59:41 10° SSW 16:03:43 40° WNW 16:07:49 10° N
USA 308 4.1 16:01:33 10° NW 16:05:09 26° N 16:08:46 10° ENE
CZ-2C R/B 2.8 16:00:36 10° SSE 16:05:25 74° ENE 16:10:10 10° N
SL-16 R/B 3.4 16:01:26 10° N 16:05:45 22° NE 16:10:04 10° E
Cosmos 2082 Rocket 2.3 16:02:08 10° S 16:07:42 61° ESE 16:13:18 10° NNE
Cosmos 540 Rocket 3.5 16:03:35 10° SSW 16:08:41 89° ESE 16:13:50 10° NNE
Sich 1 3.1 16:05:41 10° N 16:09:56 55° ENE 16:14:11 10° SSE
ARGOS 4.4 16:06:21 10° ESE 16:09:57 19° ENE 16:13:33 10° NNE
Cosmos 1500 Rocket 4.0 16:05:35 10° NNW 16:09:59 68° W 16:14:20 10° S
FengYun 1-2 T 4.2 16:07:40 10° SSE 16:13:10 65° ENE 16:18:39 10° N
COSMOS 2455 2.9 16:08:18 10° SSW 16:14:20 86° ESE 16:20:25 10° NNE
SMAP 3.2 16:11:25 10° SSE 16:15:55 51° ENE 16:20:27 10° N
NOAA 6 4.1 16:12:24 10° SSE 16:17:24 55° ENE 16:22:24 10° N
Cosmos 1933 3.6 16:16:54 10° SSW 16:20:55 75° W 16:24:58 10° N
Cosmos 1833 Rocket 3.5 16:15:40 10° SW 16:21:08 52° WNW 16:26:40 10° NNE
Cosmos 1805 Rocket 3.6 16:18:07 10° N 16:22:28 85° W 16:26:49 10° S
Cosmos 2278 3.7 16:17:28 10° NNW 16:23:09 61° ENE 16:28:45 10° SE
Cosmos 2333 Rocket 4.1 16:23:36 10° NNE 16:24:33 10° NNE 16:25:30 10° NE
Cosmos 1602 4.0 16:21:29 10° NNW 16:25:21 72° W 16:29:13 10° S
CZ-4B DEB 4.3 16:21:15 10° SE 16:26:33 52° ENE 16:31:52 10° N
USA 305 3.9 16:25:59 10° NW 16:29:47 31° NNE 16:32:51 14° ENE
CZ-2C R/B 3.6 16:26:47 10° NE 16:31:03 25° E 16:35:18 10° SSE
CZ-4B R/B 3.3 16:28:05 10° S 16:32:01 63° WSW 16:35:46 10° NNW
SL-24 R/B - RUBIN 2 4.1 16:28:02 10° NW 16:32:28 62° WSW 16:36:42 10° SSE
Cosmos 1500 3.1 16:31:52 10° N 16:35:37 85° W 16:39:20 10° S
Meteor 1-14 Rocket 4.3 16:30:08 10° N 16:35:59 63° ENE 16:41:53 10° SSE
Cosmos 44 Rocket 3.4 16:32:25 10° NNW 16:37:15 54° NE 16:41:55 10° SE
Meteor 2-16 Rocket 4.4 16:34:08 10° N 16:40:12 62° ENE 16:46:16 10° SSE
COSMOS 2406 4.1 16:35:15 10° SW 16:40:47 48° WNW 16:46:21 10° NNE
Cosmos 1814 Rocket 3.9 16:36:20 10° SSW 16:41:32 81° ESE 16:46:44 10° NNE
Cosmos 921 Rocket 3.5 16:38:56 10° SSE 16:42:47 36° E 16:45:57 14° NE
Cosmos 1570 Rocket 3.9 16:43:10 10° SSW 16:48:24 81° ESE 16:53:39 10° NNE
MOS 1-B Rocket 4.3 16:46:27 10° NNE 16:52:30 58° ESE 16:59:27 10° S
CZ-4B R/B 3.3 16:47:32 10° SE 16:52:40 47° ENE 16:57:44 10° N
CZ-2D R/B 3.1 16:51:11 10° SSE 16:54:58 68° ENE 16:58:47 10° N
Cosmos 2298 Rocket 4.1 16:50:49 10° NNW 16:56:02 52° ENE 17:01:13 10° SE
USA 267 3.3 16:50:26 15° NE 16:56:05 85° NW 17:02:37 10° SW
MOS 1-B 4.3 16:51:45 10° SSE 16:57:29 69° ENE 17:03:15 10° N
Cosmos 1939 Rocket 3.9 16:53:42 10° S 16:57:41 50° W 17:01:39 10° NNW
ATLAS CENTAUR R/B 3.6 16:49:37 10° WSW 16:58:23 44° NW 17:01:31 16° NNE
Cosmos 1151 Rocket 3.1 16:56:27 10° S 17:00:47 81° W 17:05:10 10° N
Meteor 1-27 Rocket 4.4 16:56:15 10° SSE 17:00:59 30° E 17:04:00 19° NE
USA 306 3.5 16:58:16 10° NW 17:02:16 39° NNE 17:03:51 28° ENE
COSMO-SKYMED 1 2.9 16:59:10 16° NNE 17:02:22 43° E 17:06:31 10° S
Cosmos 1633 Rocket 3.0 16:58:12 10° N 17:02:37 90° SW 17:07:01 10° S
Cosmos 1782 4.3 16:59:17 10° SW 17:03:00 37° WNW 17:06:43 10° N
APEX 3.2 16:59:45 10° S 17:03:25 46° ESE 17:04:23 34° ENE
Meteor 2-6 Rocket 4.1 16:58:05 10° S 17:03:47 73° E 17:09:20 10° NNE
Cosmos 1666 2.8 17:00:38 10° NNW 17:04:20 71° W 17:08:01 10° S
SJ-11-01 4.5 17:00:59 10° SE 17:05:30 47° ENE 17:10:03 10° N
Landsat 5 4.1 17:05:03 29° E 17:05:36 30° E 17:09:04 10° SSE
Cosmos 2360 Rocket 3.0 17:02:04 10° N 17:06:54 28° NE 17:08:17 25° ENE
PAYLOAD B 4.2 17:01:56 10° SSE 17:07:33 88° ENE 17:13:11 10° NNW
ISS -1.3 17:04:53 10° W 17:07:39 23° SW 17:10:23 10° SSE
Cosmos 1900 4.5 17:03:20 10° SW 17:08:11 73° NW 17:11:52 18° NNE
Cosmos 1818 3.6 17:07:20 10° NW 17:12:50 83° WSW 17:18:16 10° SSE
Cosmos 2279 Rocket 4.2 17:10:36 10° SSW 17:16:47 74° W 17:23:01 10° N
CZ-2C R/B 3.3 17:13:56 10° SW 17:17:08 20° S 17:19:13 15° SE
Meteor 2-15 4.3 17:13:03 10° S 17:19:07 76° E 17:25:12 10° NNE
ATLAS 5 CENTAUR R/B 2.0 17:13:25 10° NW 17:19:19 44° NNE 17:19:38 42° NE
Cosmos 2266 Rocket 4.0 17:15:25 10° N 17:21:50 69° E 17:28:12 10° SSE
USA 307 3.2 17:18:48 10° NW 17:22:55 46° NNE 17:23:33 42° NE
CZ-4C R/B 3.6 17:16:42 10° NW 17:23:58 60° WSW 17:32:19 10° SSE
SL-08 RB Rocket 3.9 17:19:45 10° SE 17:24:11 48° ENE 17:28:36 10° N
Lacrosse 5 rocket 1.6 17:22:09 10° NW 17:26:05 65° SW 17:28:57 19° SE
SKYMED 3 4.4 17:23:34 20° NNE 17:26:34 78° ESE 17:30:55 10° S
USA 234 3.2 17:22:44 10° SE 17:29:18 88° SW 17:35:53 10° NW
ATLAS 2AS CENTAUR R/B 4.2 17:24:21 10° NNW 17:29:41 20° NNE 17:31:18 19° NNE
Cosmos 1933 Rocket 3.4 17:25:25 10° N 17:29:45 64° E 17:34:02 10° SSE
Cosmos 2322 Rocket 2.2 17:24:13 10° NNW 17:29:53 61° ENE 17:35:03 12° SE
Tiangong 3.4 17:28:43 10° SSW 17:30:10 15° S 17:30:10 15° S
Cosmos 1328 Rocket 4.2 17:26:32 10° SSW 17:30:53 55° WNW 17:35:16 10° N
Cosmos 2150 Rocket 4.0 17:26:24 10° NNW 17:31:38 86° WSW 17:36:52 10° SSE
Cosmos 1980 Rocket 4.3 17:27:57 10° NW 17:32:42 28° WSW 17:37:24 10° SSW
Cosmos 1470 Rocket 3.9 17:31:19 10° NNW 17:35:47 69° W 17:40:13 10° S
Cosmos 1544 3.0 17:32:15 10° N 17:35:52 80° W 17:39:30 10° S
Cosmos 1867 3.6 17:31:37 10° SSW 17:36:58 61° ESE 17:38:27 45° ENE
NOSS 3-3 (A) 4.1 17:31:52 10° S 17:37:12 46° ESE 17:38:22 41° E
NOSS 3-3 (C) 4.1 17:31:59 10° S 17:37:18 46° ESE 17:38:27 41° E
H-2A R/B 2.8 17:32:49 10° S 17:37:49 53° W 17:42:44 10° NNW
Cosmos 1125 Rocket 3.5 17:32:35 10° NNW 17:37:51 83° WSW 17:43:08 10° SSE
X-37B 1.7 17:35:49 10° WSW 17:37:49 36° SW 17:37:49 36° SW
DEBRIS 3.6 17:36:25 10° SSW 17:38:35 38° SSE 17:38:35 38° SSE
Okean O Rocket 1.6 17:35:07 10° SSE 17:39:34 85° WSW 17:44:04 10° NNW
Meteor 1-10 Rocket 4.3 17:35:10 10° SSW 17:40:55 78° W 17:46:36 10° N
GEOS 3 Rocket 4.4 17:41:55 33° NNE 17:41:55 33° NNE 17:46:07 10° NNW
USA 32 3.9 17:37:40 10° S 17:42:51 72° E 17:46:22 21° NNE
Meteor 1-11 Rocket 3.7 17:37:20 10° N 17:43:01 89° ENE 17:48:49 10° S
USA 308 3.0 17:41:27 10° NW 17:45:21 58° N 17:45:21 58° N
ARGOS 3.3 17:44:15 10° S 17:49:37 72° WSW 17:55:03 10° NNW
SL-16 R/B 2.3 17:44:47 10° NNW 17:50:28 73° WSW 17:56:06 10° SSE
SKYMED 2 4.1 17:47:47 22° N 17:50:30 59° WNW 17:54:45 10° SSW
Cosmos 2082 Rocket 4.1 17:47:37 10° WSW 17:52:13 25° NW 17:56:50 10° N
deb Chang Zheng 4 4.4 17:51:02 10° S 17:55:12 49° W 17:59:25 10° NNW
Cosmos 1241 Rocket 4.3 17:54:06 10° SSW 18:00:29 78° ESE 18:01:58 55° NE
Feng Yun 1-1 Rocket 4.3 17:58:32 10° SSE 18:04:28 85° WSW 18:10:20 10° NNW
USA 305 3.7 18:05:45 10° NW 18:08:52 48° WNW 18:08:52 48° WNW
Cosmos 2333 Rocket 3.4 18:04:58 10° NNW 18:08:05 29° N 18:08:05 29° N
CZ-2C R/B 3.6 18:06:50 11° N 18:11:32 43° WNW 18:16:23 10° SW
Aureole 3 Rocket 4.0 18:12:45 10° SSW 18:17:15 62° WNW 18:23:39 10° N
Cosmos 2219 Rocket 3.8 18:12:58 10° NNW 18:15:05 22° N 18:15:05 22° N
USA 267 4.0 18:37:47 38° N 18:38:40 39° NNW 18:44:37 10° W
Cosmos 2360 Rocket 3.1 18:45:42 10° NW 18:50:08 46° WNW 18:50:08 46° WNW
CZ-2C R/B 4.4 18:53:09 10° SW 18:53:23 11° SW 18:53:23 11° SW
Cosmos 2322 Rocket 4.4 19:09:12 10° NW 19:13:26 22° W 19:17:09 12° SW
ATLAS 2AS CENTAUR R/B 4.3 19:15:39 10° NNW 19:18:44 25° NNW 19:18:44 25° NNW
